GW2364 Weather Reports


Display with metric or nautical units.
time (UTC)temp
F
wind
direction
speed
MPH
gust
MPH
rain 1hr
in
rain 24hr
in
rain mn
in
humidity
%
barometer
mb
20260510050008 74 57 1.0 3.0 0.00 0.03 0.00 83 1009.2
20260510044509 75 62 1.0 3.0 0.00 0.03 0.03 82 1009.0
20260510043004 76 66 0.0 2.0 0.00 0.03 0.03 80 1009.1
20260510041510 76 66 0.0 2.0 0.00 0.03 0.03 79 1008.9
20260510040005 76 66 0.0 2.0 0.00 0.03 0.03 79 1008.9
20260510034503 76 80 0.0 2.0 0.00 0.03 0.03 79 1008.8
20260510033002 77 80 0.0 2.0 0.00 0.03 0.03 79 1008.6
20260510031504 77 105 0.0 4.0 0.00 0.03 0.03 79 1008.4
20260510030008 78 98 0.0 3.0 0.00 0.03 0.03 79 1008.3
20260510024504 78 67 0.0 3.0 0.00 0.03 0.03 79 1008.1
20260510023003 79 59 1.0 7.0 0.00 0.03 0.03 78 1007.9
20260510021511 79 111 1.0 4.0 0.00 0.03 0.03 76 1007.7
20260510020006 80 114 1.0 3.0 0.00 0.03 0.03 75 1007.5
20260510014503 80 114 0.0 3.0 0.00 0.03 0.03 74 1007.2
20260510013004 81 104 0.0 2.0 0.00 0.03 0.03 72 1007.1
20260510011503 81 145 1.0 3.0 0.00 0.03 0.03 71 1007.0
20260510010006 82 96 1.0 4.0 0.00 0.03 0.03 69 1006.9
20260510004503 83 93 0.0 4.0 0.00 0.03 0.03 67 1006.8
20260510003004 84 91 1.0 5.0 0.00 0.03 0.03 64 1006.7
20260510001503 85 86 1.0 8.0 0.00 0.03 0.03 63 1006.6
20260510000009 86 86 2.0 5.0 0.00 0.03 0.03 61 1006.5
20260509234510 86 113 1.0 7.0 0.00 0.03 0.03 60 1006.3
20260509233006 87 123 1.0 6.0 0.00 0.03 0.03 58 1006.1
20260509231502 87 52 2.0 8.0 0.00 0.03 0.03 54 1006.2
20260509230006 88 64 2.0 8.0 0.00 0.03 0.03 53 1006.2
20260509224508 88 121 2.0 9.0 0.00 0.03 0.03 51 1006.1
20260509223003 88 88 2.0 8.0 0.00 0.03 0.03 43 1006.2
20260509221503 88 105 3.0 8.0 0.00 0.03 0.03 45 1006.1
20260509220005 88 55 3.0 8.0 0.00 0.03 0.03 48 1006.2
20260509214502 88 51 2.0 8.0 0.00 0.03 0.03 48 1006.2
20260509213003 89 141 2.0 7.0 0.00 0.03 0.03 51 1006.5
20260509211502 89 97 3.0 9.0 0.00 0.03 0.03 51 1006.6
20260509210004 89 65 2.0 8.0 0.00 0.03 0.03 54 1006.7
20260509204505 88 130 2.0 11.0 0.00 0.03 0.03 54 1006.8
20260509203002 87 74 3.0 10.0 0.00 0.03 0.03 54 1007.1
20260509201503 86 55 6.0 14.0 0.00 0.03 0.03 52 1007.3
20260509200005 90 58 6.0 11.0 0.00 0.03 0.03 55 1007.6
20260509194502 88 20 2.0 6.0 0.00 0.03 0.03 58 1007.6
20260509193006 90 323 1.0 5.0 0.00 0.03 0.03 56 1007.5
20260509191503 90 71 2.0 7.0 0.00 0.03 0.03 56 1007.7
20260509190009 89 286 1.0 6.0 0.00 0.03 0.03 62 1007.7
20260509184502 89 101 1.0 8.0 0.00 0.03 0.03 60 1008.1
20260509183003 88 257 5.0 11.0 0.00 0.03 0.03 61 1008.4
20260509181502 87 236 2.0 10.0 0.00 0.03 0.03 65 1008.6
20260509180005 86 305 1.0 7.0 0.00 0.03 0.03 65 1008.8
20260509174506 86 284 1.0 9.0 0.00 0.03 0.03 69 1008.9
20260509173004 86 249 2.0 7.0 0.00 0.03 0.03 69 1009.3
20260509171501 85 309 1.0 5.0 0.00 0.03 0.03 72 1009.4
20260509170005 84 241 1.0 5.0 0.00 0.03 0.03 76 1009.4
20260509164503 82 250 2.0 7.0 0.00 0.03 0.03 77 1009.4
20260509163002 82 267 1.0 5.0 0.00 0.03 0.03 79 1009.6
20260509161502 81 272 1.0 9.0 0.00 0.03 0.03 82 1009.5
20260509160005 79 236 3.0 8.0 0.00 0.03 0.03 84 1009.6
20260509154502 78 194 2.0 8.0 0.00 0.03 0.03 87 1009.7
20260509153003 76 217 2.0 7.0 0.00 0.03 0.03 91 1009.7